#timestamp,LO_Frequency,Hit,StdDev 
1677974415.5,286046995.2,N
1677974435.4,286047000.7,N
1677974455.2,286046998.9,N
1677974475.0,286047002.8,N
1677974475.9,286047002.8,N
1677974495.8,286047000.2,N
1677974515.6,286046999.0,N
1677974535.5,286046997.0,N
1677974555.3,286046996.6,N
1677974575.1,286046998.6,N
1677974595.9,286046996.9,N
1677974615.7,286046999.1,N
1677974635.5,286046998.5,N
1677974655.4,286047002.4,N
1677974675.2,286046998.8,N
1677974695.1,286046998.7,N
1677974696.0,286046998.7,N
1677974715.8,286046999.2,N
1677974735.6,286046999.3,N
1677974755.5,286046998.4,N
1677974775.3,286047001.2,N
1677974795.1,286046996.5,N
1677974815.9,286046998.9,N
1677974835.7,286046997.8,N
1677974855.6,286046996.6,N
1677974875.4,286046995.4,N
1677974895.2,286046997.7,N
1677974915.1,286046998.4,N
1677974916.0,286046998.4,N
1677974935.8,286046996.7,N
1677974955.7,286047001.0,N
1677974975.5,286046998.5,N
1677974995.3,286047001.1,N
1677975015.2,286047000.8,N
1677975035.0,286047000.8,N
1677975035.9,286047000.8,N
1677975055.8,286046999.4,N
1677975075.6,286046999.1,N
1677975095.4,286046997.7,N
1677975115.3,286046998.3,N
1677975135.1,286046999.5,N
1677975155.8,286046999.5,N
1677975175.7,286046998.6,N
1677975195.5,286046996.6,N
1677975215.4,286046999.1,N
1677975235.2,286046997.0,N
1677975255.0,286046999.6,N
1677975255.9,286046999.6,N
1677975275.8,286046998.9,N
1677975295.6,286046997.4,N
1677975315.5,286046997.0,N
1677975335.3,286046998.4,N
1677975355.1,286046999.3,N
1677975375.9,286047000.1,N
1677975395.7,286046999.0,N
1677975415.5,286046998.3,N
1677975435.4,286047000.3,N
1677975455.2,286047001.2,N
1677975475.1,286047000.8,N
1677975476.0,286047000.8,N
1677975495.8,286046999.8,N
1677975515.6,286046997.1,N
1677975535.5,286046999.5,N
1677975555.3,286046997.3,N
1677975575.1,286046999.2,N
1677975595.9,286046997.3,N
1677975615.7,286046999.3,N
1677975635.6,286046999.0,N
1677975655.4,286046997.7,N
1677975675.2,286046996.9,N
1677975695.1,286046999.6,N
1677975696.0,286046999.6,N
1677975715.8,286046998.8,N
1677975735.7,286046997.8,N
1677975755.5,286046998.5,N
1677975775.3,286046998.6,N
1677975795.2,286046996.6,N
1677975815.9,286046998.5,N
1677975835.7,286046997.1,N
1677975855.6,286046998.1,N
1677975875.4,286046998.6,N
1677975895.2,286046996.9,N
1677975915.1,286047000.0,N
1677975916.0,286047000.0,N
1677975935.8,286046998.2,N
1677975955.7,286046998.4,N
1677975975.5,286046997.1,N
1677975995.3,286046996.7,N
1677976015.2,286046997.0,N
1677976035.0,286046997.2,N
1677976035.9,286046997.2,N
1677976055.8,286046996.8,Y
1677976075.6,286047001.1,P
1677976095.4,286047000.7,N
1677976115.3,286047000.8,N
1677976135.1,286047002.8,N
1677976155.9,286047002.8,N
1677976175.7,286047000.5,N
1677976195.5,286046999.9,N
1677976215.4,286047008.2,Y
1677976235.2,286046999.9,P
1677976255.0,286047001.5,P
1677976256.0,286047001.5,N
1677976275.8,286046998.7,N
1677976295.6,286046998.2,N
1677976315.5,286047005.2,Y
1677976335.3,286046998.7,P
1677976355.1,286047000.9,N
1677976375.9,286046998.8,N
1677976395.7,286047004.8,Y
1677976415.6,286047004.8,P
1677976435.4,286047002.8,N
1677976455.2,286047005.0,N
1677976475.1,286047005.8,N
1677976476.0,286047005.8,N
1677976495.8,286047003.3,N
1677976515.7,286047005.9,N
1677976535.5,286047005.1,N
1677976555.3,286047003.2,N
1677976575.2,286047003.7,N
1677976595.0,286047006.7,Y
1677976595.9,286047006.7,P
1677976615.8,286047001.5,N
1677976635.6,286047002.8,N
1677976655.4,286046998.1,N
1677976675.3,286047000.7,N
1677976695.1,286046999.9,N
1677976715.8,286046999.8,N
1677976735.7,286046999.9,N
1677976755.5,286047000.5,N
1677976775.4,286047000.9,N
1677976795.2,286047001.1,N
1677976815.0,286047000.6,N
1677976815.9,286047000.6,N
1677976835.8,286046998.3,N
1677976855.6,286047000.0,N
1677976875.5,286047000.0,N
1677976895.3,286047000.8,N
1677976915.1,286047000.5,N
1677976935.9,286047002.5,N
1677976955.7,286047002.1,N
1677976975.6,286047003.9,N
1677976995.4,286047002.5,N
1677977015.2,286047004.2,N
1677977035.1,286047003.7,N
1677977036.0,286047003.7,N
1677977055.8,286047004.4,N
1677977075.6,286047002.5,N
1677977095.5,286047001.5,N
1677977115.3,286046999.7,N
1677977135.2,286047002.7,N
1677977155.9,286047002.7,N
1677977175.7,286047001.3,N
1677977195.6,286047001.3,N
1677977215.4,286047003.4,N
1677977235.2,286047005.9,Y
1677977255.1,286047000.2,P
1677977256.0,286047000.2,N
1677977275.8,286047001.7,N
1677977295.7,286047001.4,N
1677977315.5,286047003.9,Y
1677977335.3,286047001.7,P
1677977355.2,286047001.8,P
1677977375.9,286047001.9,P
1677977395.7,286047002.3,Y
1677977415.6,286047000.1,P
1677977465.4,286047002.6,E
1677977475.4,286047000.1,N
1677977495.2,286046998.4,P
1677977515.0,286046998.2,N
1677977515.9,286046998.2,N
1677977535.8,286047000.0,N
1677977555.6,286046998.1,N
1677977575.4,286046998.4,N
1677977595.3,286046999.6,N
1677977615.1,286046997.7,N
1677977635.9,286046995.5,Y
1677977655.7,286046997.1,P
1677977675.5,286046996.7,P
1677977695.4,286046995.3,P
1677977715.2,286046997.7,N
1677977735.0,286046996.5,Y
1677977736.0,286046996.5,P
1677977755.8,286047002.2,P
1677977775.6,286046999.8,N
1677977795.5,286047002.3,N
1677977815.3,286047002.8,N
1677977835.1,286047000.0,N
1677977855.9,286047000.9,N
1677977875.7,286046998.5,N
1677977895.5,286046998.6,N
1677977915.4,286047000.5,N
1677977935.2,286047000.4,N
1677977955.1,286047001.1,N
1677977956.0,286047001.1,N
1677977975.8,286046998.6,N
1677977995.6,286047000.3,N
